📊 Raw Sensor Data

Showing records 45126 to 45150 of 85,048 total

ID Distance (ft) Battery V Battery A Int Temp (°F) Int Humid (%) Ext Temp (°F) Solar V RSSI SNR Time Stamp
39935 16.3 3.98 0 63 41 65 5.10 -72 8 05/07/2025 09:00 AM
39934 16.3 3.98 0 62 41 64 5.10 -70 8 05/07/2025 08:45 AM
39933 16.2 3.98 0 61 41 63 5.10 -71 8 05/07/2025 08:30 AM
39932 16.3 3.98 0 60 41 64 5.10 -71 8 05/07/2025 08:15 AM
39931 16.2 3.98 0 59 41 63 5.10 -70 8 05/07/2025 08:00 AM
39930 16.2 3.98 0 57 41 63 5.10 -71 8 05/07/2025 07:45 AM
39929 16.2 4.10 48 56 40 61 4.50 -69 8 05/07/2025 07:30 AM
39928 16.2 4.01 26 55 40 59 4.50 -71 8 05/07/2025 07:15 AM
39927 16.1 4.03 5 53 40 58 4.50 -71 7 05/07/2025 07:00 AM
39926 16.1 4.01 6 52 41 56 4.50 -69 8 05/07/2025 06:45 AM
39925 16.0 3.93 0 50 41 53 4.50 -68 8 05/07/2025 06:30 AM
39924 16.0 3.91 -8 50 41 51 4.50 -71 8 05/07/2025 06:15 AM
39923 16.0 3.90 -10 49 42 51 3.20 -72 8 05/07/2025 06:00 AM
39922 16.0 3.91 -5 50 41 51 0.70 -70 8 05/07/2025 05:45 AM
39921 16.0 3.98 -5 50 42 51 0.00 -70 8 05/07/2025 05:30 AM
39920 16.0 3.91 -5 50 42 51 0.00 -71 7 05/07/2025 05:15 AM
39919 16.0 3.98 -5 50 41 51 0.00 -70 8 05/07/2025 05:00 AM
39918 16.0 3.92 -5 50 42 51 0.00 -70 8 05/07/2025 04:45 AM
39917 16.0 3.98 -5 50 42 51 0.00 -71 9 05/07/2025 04:30 AM
39916 16.0 3.91 -5 50 42 51 0.10 -72 7 05/07/2025 04:15 AM
39915 16.0 3.98 -5 50 42 51 0.00 -72 8 05/07/2025 04:00 AM
39914 16.0 3.91 -5 50 42 51 0.00 -69 8 05/07/2025 03:45 AM
39913 16.2 3.98 -5 50 42 52 0.00 -70 8 05/07/2025 03:30 AM
39912 16.0 3.89 -5 50 42 51 0.00 -69 8 05/07/2025 03:15 AM
39911 16.0 3.99 -5 50 42 52 0.00 -71 8 05/07/2025 03:00 AM